HMF001 ESGP-ESGP

Flight info

Callsign HMF001
Flight time 0h 59m
Altitude 1500
Route DCT LAV STAY01/0030 LAV DCT
Aircraft A139/M-SBDE2E3FGHIJ3J4J5P2RWXYZ/S

Departure

Time 2026-05-04 19:55
Airport Säve Airport (ESGP)

Arrival

Time 2026-05-04 20:54
Airport Säve Airport (ESGP)
Time Latitude Longitude Altitude Speed Heading
2026-05-04 19:53 57.78167 11.86708 53 ft 0 kts
2026-05-04 19:53 57.78216 11.86767 147 ft 26 kts
2026-05-04 19:53 57.78391 11.87023 337 ft 29 kts
2026-05-04 19:54 57.78477 11.87294 391 ft 20 kts
2026-05-04 19:54 57.78521 11.87548 387 ft 19 kts
2026-05-04 19:54 57.78533 11.87786 380 ft 23 kts 12°
2026-05-04 19:54 57.78629 11.88051 417 ft 26 kts 13°
2026-05-04 19:55 57.78786 11.88547 671 ft 68 kts 43°
2026-05-04 19:55 57.79198 11.89437 941 ft 108 kts 41°
2026-05-04 19:55 57.79747 11.90665 933 ft 131 kts 43°
2026-05-04 19:55 57.80339 11.91950 914 ft 128 kts 42°
2026-05-04 19:56 57.80926 11.93197 900 ft 127 kts 43°
2026-05-04 19:56 57.81510 11.94434 887 ft 126 kts 44°
2026-05-04 19:56 57.82092 11.95664 896 ft 127 kts 42°
2026-05-04 19:56 57.82686 11.96927 878 ft 128 kts 44°
2026-05-04 19:57 57.83276 11.98161 881 ft 127 kts 43°
2026-05-04 19:57 57.83867 11.99392 878 ft 126 kts 43°
2026-05-04 19:57 57.84452 12.00612 881 ft 125 kts 44°
2026-05-04 19:57 57.85035 12.01825 883 ft 126 kts 42°
2026-05-04 19:58 57.85631 12.03046 884 ft 127 kts 43°
2026-05-04 19:58 57.86231 12.04274 883 ft 127 kts 43°
2026-05-04 19:58 57.86819 12.05500 880 ft 127 kts 44°
2026-05-04 19:58 57.87413 12.06728 876 ft 127 kts 45°
2026-05-04 19:59 57.87775 12.08273 880 ft 129 kts 72°
2026-05-04 19:59 57.87987 12.09911 882 ft 130 kts 75°
2026-05-04 19:59 57.88202 12.11560 874 ft 130 kts 76°
2026-05-04 19:59 57.88405 12.13227 870 ft 131 kts 76°
2026-05-04 20:00 57.88609 12.14888 975 ft 130 kts 77°
2026-05-04 20:00 57.88777 12.16561 1143 ft 130 kts 84°
2026-05-04 20:00 57.88842 12.18273 1205 ft 133 kts 87°
2026-05-04 20:00 57.88909 12.20100 1229 ft 148 kts 87°
2026-05-04 20:01 57.88945 12.22090 1263 ft 156 kts 92°
2026-05-04 20:01 57.88860 12.24131 1272 ft 154 kts 94°
2026-05-04 20:01 57.88763 12.26127 1275 ft 153 kts 96°
2026-05-04 20:01 57.88694 12.28124 1270 ft 153 kts 94°
2026-05-04 20:02 57.88608 12.30123 1270 ft 154 kts 94°
2026-05-04 20:02 57.88528 12.32118 1269 ft 153 kts 95°
2026-05-04 20:02 57.88467 12.34117 1270 ft 153 kts 92°
2026-05-04 20:02 57.88394 12.36108 1269 ft 153 kts 95°
2026-05-04 20:03 57.88330 12.38123 1270 ft 153 kts 94°
2026-05-04 20:03 57.88131 12.40051 1271 ft 150 kts 122°
2026-05-04 20:03 57.87387 12.41248 1268 ft 137 kts 169°
2026-05-04 20:03 57.86486 12.41366 1271 ft 130 kts 189°
2026-05-04 20:04 57.85583 12.41268 1270 ft 128 kts 191°
2026-05-04 20:04 57.84704 12.41151 1267 ft 128 kts 192°
2026-05-04 20:04 57.83809 12.41030 1271 ft 129 kts 191°
2026-05-04 20:04 57.82909 12.40911 1270 ft 131 kts 192°
2026-05-04 20:05 57.81986 12.40791 1276 ft 131 kts 191°
2026-05-04 20:05 57.81074 12.40669 1278 ft 131 kts 190°
2026-05-04 20:05 57.80174 12.40551 1272 ft 129 kts 191°
2026-05-04 20:05 57.79297 12.40240 1262 ft 126 kts 206°
2026-05-04 20:06 57.78542 12.39488 1266 ft 121 kts 220°
2026-05-04 20:06 57.77889 12.38531 1260 ft 122 kts 219°
2026-05-04 20:06 57.77110 12.37851 1268 ft 124 kts 208°
2026-05-04 20:06 57.76291 12.37277 1258 ft 126 kts 209°
2026-05-04 20:07 57.75532 12.36498 1267 ft 126 kts 217°
2026-05-04 20:07 57.74771 12.35672 1280 ft 127 kts 213°
2026-05-04 20:07 57.73982 12.34950 1278 ft 124 kts 210°
2026-05-04 20:07 57.73214 12.34257 1272 ft 122 kts 210°
2026-05-04 20:08 57.72429 12.33623 1277 ft 125 kts 210°
2026-05-04 20:08 57.71623 12.32951 1268 ft 126 kts 212°
2026-05-04 20:08 57.70836 12.32218 1276 ft 125 kts 212°
2026-05-04 20:08 57.70084 12.31455 1270 ft 123 kts 213°
2026-05-04 20:09 57.69338 12.30694 1269 ft 122 kts 213°
2026-05-04 20:09 57.68528 12.30107 1269 ft 128 kts 208°
2026-05-04 20:09 57.67700 12.29496 1277 ft 124 kts 207°
2026-05-04 20:09 57.66915 12.28898 1273 ft 123 kts 208°
2026-05-04 20:10 57.66105 12.28294 1273 ft 126 kts 209°
2026-05-04 20:10 57.65316 12.27589 1281 ft 123 kts 227°
2026-05-04 20:10 57.64974 12.26239 1282 ft 116 kts 266°
2026-05-04 20:10 57.65006 12.25067 1300 ft 121 kts 275°
2026-05-04 20:11 57.65081 12.23443 1356 ft 133 kts 275°
2026-05-04 20:11 57.65164 12.21687 1401 ft 137 kts 274°
2026-05-04 20:11 57.65524 12.20073 1415 ft 137 kts 313°
2026-05-04 20:11 57.66336 12.19216 1419 ft 135 kts 345°
2026-05-04 20:12 57.67258 12.19414 1421 ft 136 kts 22°
2026-05-04 20:12 57.68109 12.20175 1419 ft 136 kts 27°
2026-05-04 20:12 57.68963 12.20990 1421 ft 137 kts 27°
2026-05-04 20:12 57.69807 12.21803 1421 ft 137 kts 27°
2026-05-04 20:13 57.70645 12.22614 1421 ft 136 kts 27°
2026-05-04 20:13 57.71491 12.23434 1421 ft 136 kts 27°
2026-05-04 20:13 57.72339 12.24255 1421 ft 136 kts 27°
2026-05-04 20:13 57.73175 12.25067 1421 ft 136 kts 27°
2026-05-04 20:14 57.74022 12.25890 1420 ft 136 kts 28°
2026-05-04 20:14 57.74607 12.27227 1422 ft 137 kts 71°
2026-05-04 20:14 57.74580 12.28957 1421 ft 136 kts 112°
2026-05-04 20:14 57.73935 12.30195 1421 ft 136 kts 155°
2026-05-04 20:15 57.73079 12.30949 1420 ft 136 kts 154°
2026-05-04 20:15 57.72216 12.31702 1421 ft 137 kts 155°
2026-05-04 20:15 57.71339 12.32345 1418 ft 137 kts 172°
2026-05-04 20:15 57.70419 12.31987 1424 ft 136 kts 205°
2026-05-04 20:16 57.69640 12.30977 1418 ft 136 kts 213°
2026-05-04 20:16 57.68801 12.30141 1420 ft 136 kts 206°
2026-05-04 20:16 57.67954 12.29353 1421 ft 136 kts 206°
2026-05-04 20:16 57.67111 12.28565 1421 ft 136 kts 206°
2026-05-04 20:17 57.66258 12.27754 1420 ft 136 kts 208°
2026-05-04 20:17 57.65675 12.26413 1422 ft 137 kts 251°
2026-05-04 20:17 57.65622 12.24646 1415 ft 136 kts 274°
2026-05-04 20:17 57.65698 12.22844 1411 ft 142 kts 275°
2026-05-04 20:18 57.65796 12.20982 1408 ft 148 kts 280°
2026-05-04 20:18 57.66347 12.19340 1416 ft 154 kts 321°
2026-05-04 20:18 57.67350 12.18730 1422 ft 154 kts
2026-05-04 20:18 57.68365 12.19315 1424 ft 153 kts 25°
2026-05-04 20:19 57.69313 12.20189 1419 ft 153 kts 27°
2026-05-04 20:19 57.70267 12.21099 1420 ft 154 kts 27°
2026-05-04 20:19 57.71220 12.22016 1421 ft 154 kts 27°
2026-05-04 20:19 57.72169 12.22932 1421 ft 154 kts 27°
2026-05-04 20:20 57.73118 12.23849 1421 ft 154 kts 27°
2026-05-04 20:20 57.74072 12.24773 1421 ft 154 kts 27°
2026-05-04 20:20 57.74990 12.25787 1415 ft 155 kts 43°
2026-05-04 20:20 57.75459 12.27561 1421 ft 155 kts 83°
2026-05-04 20:21 57.75433 12.29552 1421 ft 153 kts 94°
2026-05-04 20:21 57.75341 12.31535 1419 ft 154 kts 95°
2026-05-04 20:21 57.74596 12.35140 1421 ft 156 kts 145°
2026-05-04 20:22 57.73703 12.35148 1529 ft 127 kts 217°
2026-05-04 20:22 57.73032 12.34204 1341 ft 131 kts 220°
2026-05-04 20:22 57.72169 12.33222 1277 ft 150 kts 206°
2026-05-04 20:22 57.71194 12.32423 1192 ft 157 kts 202°
2026-05-04 20:23 57.70181 12.31544 1107 ft 160 kts 205°
2026-05-04 20:23 57.69169 12.30620 967 ft 164 kts 206°
2026-05-04 20:23 57.68134 12.29669 743 ft 171 kts 205°
2026-05-04 20:23 57.67085 12.28734 722 ft 162 kts 206°
2026-05-04 20:24 57.66123 12.27849 900 ft 135 kts 204°
2026-05-04 20:24 57.65299 12.27076 959 ft 137 kts 208°
2026-05-04 20:24 57.64437 12.26256 1152 ft 143 kts 207°
2026-05-04 20:24 57.63746 12.24887 1323 ft 153 kts 247°
2026-05-04 20:25 57.63673 12.22912 1439 ft 154 kts 273°
2026-05-04 20:25 57.63766 12.20909 1484 ft 154 kts 275°
2026-05-04 20:25 57.63866 12.18930 1505 ft 154 kts 275°
2026-05-04 20:25 57.63969 12.16946 1513 ft 154 kts 276°
2026-05-04 20:26 57.64485 12.15222 1518 ft 156 kts 319°
2026-05-04 20:26 57.65484 12.14578 1522 ft 154 kts
2026-05-04 20:26 57.66553 12.14702 1520 ft 153 kts
2026-05-04 20:26 57.67619 12.14865 1519 ft 154 kts
2026-05-04 20:27 57.68636 12.14353 1519 ft 157 kts 323°
2026-05-04 20:27 57.69279 12.12771 1524 ft 154 kts 300°
2026-05-04 20:27 57.69595 12.10857 1521 ft 155 kts 275°
2026-05-04 20:27 57.69673 12.08850 1520 ft 154 kts 273°
2026-05-04 20:28 57.69738 12.06864 1520 ft 154 kts 273°
2026-05-04 20:28 57.69803 12.04867 1520 ft 154 kts 273°
2026-05-04 20:28 57.69871 12.02847 1521 ft 154 kts 274°
2026-05-04 20:28 57.69942 12.00863 1521 ft 154 kts 274°
2026-05-04 20:29 57.69990 11.98862 1512 ft 155 kts 264°
2026-05-04 20:29 57.69746 11.96890 1523 ft 154 kts 255°
2026-05-04 20:29 57.69462 11.94982 1520 ft 154 kts 254°
2026-05-04 20:29 57.69172 11.93049 1520 ft 154 kts 254°
2026-05-04 20:30 57.68885 11.91121 1521 ft 154 kts 255°
2026-05-04 20:30 57.68602 11.89190 1521 ft 154 kts 255°
2026-05-04 20:30 57.68319 11.87246 1521 ft 154 kts 255°
2026-05-04 20:30 57.68040 11.85312 1521 ft 154 kts 255°
2026-05-04 20:31 57.67762 11.83381 1521 ft 154 kts 255°
2026-05-04 20:31 57.67489 11.81447 1520 ft 154 kts 256°
2026-05-04 20:31 57.67630 11.79490 1521 ft 155 kts 297°
2026-05-04 20:31 57.68404 11.78145 1526 ft 154 kts 329°
2026-05-04 20:32 57.69348 11.77202 1519 ft 153 kts 333°
2026-05-04 20:32 57.70296 11.76297 1519 ft 154 kts 333°
2026-05-04 20:32 57.71260 11.75385 1521 ft 154 kts 333°
2026-05-04 20:32 57.72209 11.74488 1521 ft 154 kts 333°
2026-05-04 20:33 57.73170 11.73581 1521 ft 154 kts 333°
2026-05-04 20:33 57.74128 11.72678 1521 ft 154 kts 333°
2026-05-04 20:33 57.75083 11.71777 1521 ft 154 kts 333°
2026-05-04 20:33 57.76043 11.70870 1521 ft 154 kts 333°
2026-05-04 20:34 57.76997 11.69968 1521 ft 154 kts 333°
2026-05-04 20:34 57.77949 11.69068 1521 ft 154 kts 333°
2026-05-04 20:34 57.78724 11.67710 1518 ft 156 kts 296°
2026-05-04 20:34 57.78759 11.65746 1521 ft 155 kts 249°
2026-05-04 20:35 57.78020 11.64350 1521 ft 155 kts 202°
2026-05-04 20:35 57.76977 11.64377 1526 ft 154 kts 159°
2026-05-04 20:35 57.76003 11.65217 1520 ft 153 kts 154°
2026-05-04 20:35 57.75053 11.66108 1520 ft 154 kts 153°
2026-05-04 20:36 57.74107 11.66997 1520 ft 154 kts 153°
2026-05-04 20:36 57.73144 11.67895 1521 ft 154 kts 154°
2026-05-04 20:36 57.72176 11.68792 1521 ft 154 kts 154°
2026-05-04 20:36 57.71211 11.69680 1521 ft 154 kts 154°
2026-05-04 20:37 57.70250 11.70560 1521 ft 154 kts 154°
2026-05-04 20:37 57.69282 11.71414 1516 ft 155 kts 161°
2026-05-04 20:37 57.68235 11.71346 1521 ft 155 kts 202°
2026-05-04 20:37 57.67453 11.69984 1521 ft 154 kts 243°
2026-05-04 20:38 57.67350 11.68038 1521 ft 154 kts 285°
2026-05-04 20:38 57.67952 11.66462 1522 ft 154 kts 325°
2026-05-04 20:38 57.68885 11.65470 1520 ft 153 kts 333°
2026-05-04 20:38 57.69832 11.64561 1520 ft 154 kts 333°
2026-05-04 20:39 57.70786 11.63658 1521 ft 154 kts 333°
2026-05-04 20:39 57.71747 11.62750 1521 ft 154 kts 333°
2026-05-04 20:39 57.72698 11.61853 1521 ft 154 kts 333°
2026-05-04 20:39 57.73660 11.60947 1521 ft 154 kts 333°
2026-05-04 20:40 57.74515 11.59747 1516 ft 156 kts 304°
2026-05-04 20:40 57.74706 11.57808 1522 ft 155 kts 258°
2026-05-04 20:40 57.74094 11.56230 1520 ft 155 kts 212°
2026-05-04 20:40 57.73063 11.55963 1521 ft 154 kts 166°
2026-05-04 20:41 57.72076 11.56755 1521 ft 153 kts 154°
2026-05-04 20:41 57.71127 11.57642 1519 ft 154 kts 153°
2026-05-04 20:41 57.70173 11.58540 1520 ft 154 kts 153°
2026-05-04 20:41 57.69212 11.59439 1521 ft 154 kts 154°
2026-05-04 20:42 57.68243 11.60337 1521 ft 154 kts 154°
2026-05-04 20:42 57.67200 11.60556 1521 ft 155 kts 193°
2026-05-04 20:42 57.66328 11.59444 1522 ft 154 kts 234°
2026-05-04 20:42 57.66062 11.57558 1521 ft 154 kts 276°
2026-05-04 20:43 57.66538 11.55800 1520 ft 154 kts 317°
2026-05-04 20:43 57.67432 11.54762 1521 ft 153 kts 332°
2026-05-04 20:43 57.68383 11.53845 1519 ft 154 kts 333°
2026-05-04 20:43 57.69332 11.52946 1520 ft 154 kts 333°
2026-05-04 20:44 57.70289 11.52043 1521 ft 154 kts 333°
2026-05-04 20:44 57.71244 11.51142 1521 ft 154 kts 333°
2026-05-04 20:44 57.72213 11.50229 1521 ft 154 kts 333°
2026-05-04 20:44 57.72968 11.48864 1519 ft 156 kts 295°
2026-05-04 20:45 57.72990 11.46901 1521 ft 155 kts 249°
2026-05-04 20:45 57.72238 11.45518 1520 ft 155 kts 202°
2026-05-04 20:45 57.71197 11.45571 1526 ft 154 kts 159°
2026-05-04 20:45 57.70224 11.46418 1520 ft 153 kts 154°
2026-05-04 20:46 57.69283 11.47303 1519 ft 154 kts 153°
2026-05-04 20:46 57.68325 11.48206 1520 ft 154 kts 154°
2026-05-04 20:46 57.67372 11.49097 1521 ft 154 kts 154°
2026-05-04 20:46 57.66402 11.49998 1521 ft 154 kts 154°
2026-05-04 20:47 57.65443 11.50882 1521 ft 154 kts 154°
2026-05-04 20:47 57.64485 11.51760 1521 ft 154 kts 154°
2026-05-04 20:47 57.63517 11.52646 1521 ft 154 kts 154°
2026-05-04 20:47 57.62765 11.54016 1519 ft 156 kts 115°
2026-05-04 20:48 57.62755 11.55995 1522 ft 155 kts 68°
2026-05-04 20:48 57.63308 11.57674 1520 ft 153 kts 55°
2026-05-04 20:48 57.63927 11.59302 1519 ft 154 kts 54°
2026-05-04 20:48 57.64548 11.60920 1520 ft 154 kts 54°
2026-05-04 20:49 57.65173 11.62552 1521 ft 154 kts 54°
2026-05-04 20:49 57.65793 11.64184 1521 ft 154 kts 55°
2026-05-04 20:49 57.66409 11.65811 1521 ft 154 kts 55°
2026-05-04 20:49 57.67024 11.67443 1521 ft 154 kts 55°
2026-05-04 20:50 57.67646 11.69099 1521 ft 154 kts 55°
2026-05-04 20:50 57.68261 11.70742 1521 ft 154 kts 55°
2026-05-04 20:50 57.68876 11.72386 1521 ft 154 kts 55°
2026-05-04 20:50 57.69490 11.74030 1521 ft 154 kts 55°
2026-05-04 20:51 57.70101 11.75671 1521 ft 154 kts 55°
2026-05-04 20:51 57.70707 11.77296 1521 ft 154 kts 55°
2026-05-04 20:51 57.71326 11.78960 1521 ft 154 kts 55°
2026-05-04 20:51 57.71937 11.80604 1521 ft 154 kts 55°
2026-05-04 20:52 57.72546 11.82242 1521 ft 154 kts 55°
2026-05-04 20:52 57.73156 11.83886 1521 ft 154 kts 55°
2026-05-04 20:52 57.73774 11.85547 1521 ft 154 kts 55°
2026-05-04 20:52 57.74623 11.86685 1458 ft 161 kts 13°
2026-05-04 20:53 57.75658 11.87012 1669 ft 113 kts 356°
2026-05-04 20:53 57.75854 11.86841 2258 ft 38 kts
2026-05-04 20:53 57.76337 11.86667 1327 ft 116 kts 360°
2026-05-04 20:53 57.77121 11.87465 398 ft 154 kts 58°
2026-05-04 20:54 57.77743 11.88487 288 ft 96 kts
2026-05-04 20:54 57.78119 11.87853 252 ft 73 kts 278°
2026-05-04 20:54 57.78161 11.87061 175 ft 48 kts 270°
2026-05-04 20:54 57.78166 11.86788 56 ft 0 kts 269°